Trenton, NJ

5:27 AM EDT on April 28, 2017 (GMT -0400)
Trenton Mercer

Weather History for KTTN - July, 2013

Change the Weather History Date:

Wednesday, July 24, 2013

  Actual Average Record
Temperature  
Mean Temperature 71 °F 76 °F  
Max Temperature 79 °F 86 °F 98 °F (1910)
Min Temperature 63 °F 66 °F 49 °F (1985)
Degree Days  
Heating Degree Days 0 0  
Month to date heating degree days 0 0  
Since 1 June heating degree days 4 24  
Since 1 July heating degree days 0 0  
Cooling Degree Days 6 11  
Month to date cooling degree days 369 255  
Year to date cooling degree days 677 502  
Since 1 June cooling degree days 587 445  
Growing Degree Days 22 (Base 50)    
Moisture  
Dew Point 63 °F    
Average Humidity 71    
Maximum Humidity 84    
Minimum Humidity 57    
Precipitation  
Precipitation 0.00 in 0.15 in 2.10 in (1997)
Month to date precipitation 4.91 3.86  
Year to date precipitation 27.89 25.79  
Sea Level Pressure  
Sea Level Pressure 29.75 in    
Wind  
Wind Speed 7 mph (NNW)    
Max Wind Speed 13 mph    
Max Gust Speed 24 mph    
Visibility 10 miles    
Events      
T = Trace of Precipitation, MM = Missing Value Source: NWS Daily Summary

Daily Weather History Graph

Daily Weather History Graph

Search for Another Location

Airport or City:

Trip Planner

Search our weather history database for the weather conditions in past years. The results will help you decide how hot, cold, wet, or windy it might be!

Date:

Astronomy

Jul. 24, 2013 Rise Set
Actual Time 5:49 AM EDT 8:21 PM EDT
Civil Twilight 5:18 AM EDT 8:52 PM EDT
Nautical Twilight 4:39 AM EDT 9:30 PM EDT
Astronomical Twilight 3:56 AM EDT 10:14 PM EDT
Moon 9:25 PM EDT (7/24) 8:07 AM EDT (7/24)
Length of Visible Light 15h 33m
Length of Day
14h 31m
Waning Gibbous, 95% of the Moon is Illuminated
Jul 24
Waning Gibbous
Jul 29
Last Quarter
Aug 6
New
Aug 14
First Quarter
Aug 20
Full

Hourly Weather History & Observations

Time (EDT) Temp. Dew Point Humidity Pressure Visibility Wind Dir Wind Speed Gust Speed Precip Events Conditions
12:53 AM 75.0 °F 68.0 °F 79% 29.64 in 10.0 mi WNW 3.5 mph - N/A   Clear
1:53 AM 73.0 °F 68.0 °F 84% 29.64 in 10.0 mi Calm Calm - N/A   Clear
2:53 AM 73.0 °F 66.9 °F 81% 29.63 in 10.0 mi WNW 3.5 mph - N/A   Clear
3:53 AM 73.0 °F 66.0 °F 79% 29.62 in 10.0 mi WNW 5.8 mph - N/A   Clear
4:53 AM 71.1 °F 66.0 °F 84% 29.63 in 10.0 mi West 3.5 mph - N/A   Clear
5:53 AM 70.0 °F 64.9 °F 84% 29.65 in 8.0 mi Calm Calm - N/A   Clear
6:53 AM 71.1 °F 64.0 °F 78% 29.67 in 10.0 mi West 4.6 mph - N/A   Clear
7:53 AM 73.9 °F 64.0 °F 71% 29.68 in 10.0 mi NNW 9.2 mph - N/A   Clear
8:53 AM 75.0 °F 64.9 °F 71% 29.71 in 10.0 mi NNW 5.8 mph - N/A   Clear
9:53 AM 79.0 °F 66.0 °F 64% 29.72 in 10.0 mi Variable 4.6 mph - N/A   Clear
10:53 AM 78.1 °F 66.0 °F 66% 29.74 in 10.0 mi NW 8.1 mph - N/A   Clear
11:36 AM 78.8 °F 66.2 °F 65% 29.77 in 10.0 mi North 8.1 mph - N/A   Mostly Cloudy
11:50 AM 78.8 °F 66.2 °F 65% 29.77 in 10.0 mi North 12.7 mph - N/A   Scattered Clouds
11:53 AM 78.1 °F 66.0 °F 66% 29.75 in 10.0 mi NNW 9.2 mph - N/A   Scattered Clouds
12:43 PM 75.2 °F 66.2 °F 73% 29.78 in 10.0 mi NNW 10.4 mph - N/A   Mostly Cloudy
12:53 PM 77.0 °F 66.0 °F 69% 29.76 in 10.0 mi North 11.5 mph - N/A   Mostly Cloudy
1:53 PM 78.1 °F 64.9 °F 64% 29.77 in 10.0 mi NNW 9.2 mph - N/A   Mostly Cloudy
2:00 PM 78.8 °F 66.2 °F 65% 29.79 in 10.0 mi North 6.9 mph - N/A   Mostly Cloudy
2:53 PM 77.0 °F 64.0 °F 64% 29.78 in 10.0 mi NNW 8.1 mph - N/A   Overcast
3:53 PM 78.1 °F 63.0 °F 60% 29.78 in 10.0 mi North 10.4 mph - N/A   Mostly Cloudy
4:53 PM 77.0 °F 63.0 °F 62% 29.78 in 10.0 mi NNW 6.9 mph - N/A   Overcast
5:53 PM 77.0 °F 62.1 °F 60% 29.79 in 10.0 mi WNW 5.8 mph - N/A   Partly Cloudy
6:53 PM 78.1 °F 62.1 °F 58% 29.80 in 10.0 mi NNW 5.8 mph - N/A   Partly Cloudy
7:53 PM 75.0 °F 59.0 °F 57% 29.82 in 10.0 mi North 9.2 mph - N/A   Mostly Cloudy
8:53 PM 71.1 °F 57.0 °F 61% 29.86 in 10.0 mi North 8.1 mph - N/A   Clear
9:53 PM 69.1 °F 54.0 °F 58% 29.88 in 10.0 mi North 11.5 mph - N/A   Clear
10:53 PM 66.9 °F 54.0 °F 63% 29.91 in 10.0 mi North 10.4 mph - N/A   Clear
11:53 PM 64.9 °F 53.1 °F 65% 29.91 in 10.0 mi North 8.1 mph - N/A   Clear